Hourly Data Report for November 12, 2012

BAGOTVILLE A
QUEBEC

48°20'00.000" N
71°00'00.000" W
159.10 m
7060400
71727
YBG

Download Data

Hourly Data (November 2012)
Hourly Data Report for November 12, 2012
TIME
LST
Temp Definition
°C
Dew Point Definition
°C
Rel Hum Definition
%
Precip. Amount Definition
mm

Wind Dir Definition
10's deg

Wind Spd Definition
km/h
Visibility Definition
km
Stn Press Definition
kPa
Hmdx Definition


Wind Chill Definition


Weather Definition


00:00 0.1 -2.5 83   10 22 24.1 100.49     Mostly Cloudy
01:00 0.5 -1.2 88   10 20 24.1 100.48     Mainly Clear
02:00 0.1 -1.9 86   11 13 24.1 100.50     Mainly Clear
03:00 0.1 -1.7 88   11 15 24.1 100.45     Clear
04:00 0.1 -1.9 86   11 17 24.1 100.39     Clear
05:00 0.3 -1.7 86   11 15 24.1 100.39     Clear
06:00 0.4 -1.8 85   11 24 24.1 100.35     Mainly Clear
07:00 0.7 -1.1 88   10 26 40.2 100.35     Mainly Clear
08:00 1.5 -1.3 82   10 24 40.2 100.29     Mainly Clear
09:00 3.0 -0.6 77   11 24 40.2 100.25     Mainly Clear
10:00 4.9 -0.3 69   10 24 40.2 100.16     Mostly Cloudy
11:00 5.2 -0.2 68   10 24 40.2 100.09     Mostly Cloudy
12:00 5.4 -0.2 67   10 24 40.2 100.02     Cloudy
13:00 5.5 0.2 69   10 24 40.2 99.93     Cloudy
14:00 6.5 0.9 67   12 19 40.2 99.87     Cloudy
15:00 6.4 1.0 68   12 13 40.2 99.87     Cloudy
16:00 5.9 1.4 73   12 15 40.2 99.85     Cloudy
17:00 6.1 1.7 73   12 15 24.1 99.82     Mostly Cloudy
18:00 5.9 1.9 75   11 19 24.1 99.71     Mostly Cloudy
19:00 6.3 2.1 74   11 20 24.1 99.60     Mostly Cloudy
20:00 5.5 2.2 79   10 22 24.1 99.47     Mostly Cloudy
21:00 6.5 2.1 73   11 22 24.1 99.35     Cloudy
22:00 6.5 2.4 75   11 26 24.1 99.25     Cloudy
23:00 7.1 2.1 70   10 24 24.1 99.15     Mostly Cloudy

Notes on Data Quality.

Legend

  • E = Estimated
  • M = Missing
  • NA = Not Available*
  • [empty] = Indicates an unobserved value
Date modified: